Tracking 31027 objects as of 19-Jul-2025
HD Live streaming from Space Station
objects crossing your sky now

STARLINK-30844

Track STARLINK-30844 now!
10-day predictions
STARLINK-30844 is classified as:


NORAD ID: 58403
Int'l Code: 2023-180B
Perigee: 565.2 km
Apogee: 567.2 km
Inclination: 43.0 °
Period: 95.8 minutes
Semi major axis: 6937 km
RCS: Unknown
Launch date: November 22, 2023
Source: United States (US)
Launch site: AIR FORCE EASTERN TEST RANGE (AFETR)
Your satellite tracking list
NOAA 16 DEB
Track 1 satellite(s)




NASA's NSSDC Master Catalog

Two Line Element Set (TLE):
1 58403U 23180B   25199.84438689 -.00000310  00000-0 -79012-5 0  9990
2 58403  43.0019 247.1168 0001457 278.1094  81.9582 15.02536225 92326
Source of the keplerian elements: AFSPC